Location: Dillon
(41.1766°N, 107.0923°W)
Time: 21:42:05
(UTC+00:00)

UWE-3 - Visible Passes

Search period start: 27 June 2022 00:00
Search period end: 07 July 2022 00:00
Orbit: 581 x 680 km, 97.7° (Epoch: 27 June)

Date Brightness Start Highest point End Pass type
(mag) Time Alt. Az. Time Alt. Az. Time Alt. Az.
27 Jun ? 10:35:55 10° NNE 10:40:13 87° ESE 10:44:38 10° SSW visible
28 Jun ? 09:22:02 10° ENE 09:24:05 13° E 09:26:09 10° ESE visible
28 Jun ? 10:56:30 10° N 11:00:43 55° WNW 11:05:01 10° SSW visible
29 Jun ? 09:41:24 10° NE 09:44:46 22° E 09:48:12 10° SE visible
30 Jun ? 10:01:23 10° NNE 10:05:24 36° E 10:09:30 10° SSE visible
01 Jul ? 10:21:39 10° NNE 10:25:58 61° E 10:30:23 10° S visible
02 Jul ? 10:42:07 10° N 10:46:29 79° WNW 10:50:58 10° SSW visible
03 Jul ? 09:27:41 10° NE 09:30:25 16° E 09:33:10 10° SE visible
03 Jul ? 11:02:45 10° N 11:06:57 46° WNW 11:11:14 10° SW visible
04 Jul ? 09:47:21 10° NE 09:51:04 26° E 09:54:51 10° SSE visible
05 Jul ? 10:07:26 10° NNE 10:11:40 43° E 10:15:58 10° S visible
06 Jul ? 10:27:46 10° NNE 10:32:12 74° ESE 10:36:44 10° S visible
